Time,TemperatureF,DewpointF,PressureIn,WindDirection,WindDirectionDegrees,WindSpeedMPH,WindSpeedGustMPH,Humidity,HourlyPrecipIn,Conditions,Clouds,dailyrainin,SoftwareType,DateUTC
2013-03-25 00:16:00,25.9,20.6,29.65,ESE,112,0.0,-999.0,80,-99.99,,,0.00,Acu-Link.com,2013-03-25 04:16:00,
2013-03-25 00:46:00,30.6,22.3,29.65,ESE,112,1.7,-999.0,71,-99.99,,,0.00,Acu-Link.com,2013-03-25 04:46:00,
2013-03-25 01:16:00,30.4,21.8,29.65,ESE,112,0.0,-999.0,70,-99.99,,,0.00,Acu-Link.com,2013-03-25 05:16:00,
2013-03-25 01:32:00,30.2,21.6,29.64,ESE,112,2.2,-999.0,70,-99.99,,,0.00,Acu-Link.com,2013-03-25 05:32:00,
2013-03-25 01:47:00,29.8,21.2,29.64,NNE,22,0.0,-999.0,70,-99.99,,,0.00,Acu-Link.com,2013-03-25 05:47:00,
2013-03-25 02:02:00,29.8,21.6,29.64,NE,45,1.7,-999.0,71,-99.99,,,0.00,Acu-Link.com,2013-03-25 06:02:00,
2013-03-25 02:17:00,29.8,21.2,29.63,ENE,67,1.7,-999.0,70,-99.99,,,0.00,Acu-Link.com,2013-03-25 06:17:00,
2013-03-25 02:32:00,29.5,21.3,29.62,NNW,337,0.0,-999.0,71,-99.99,,,0.00,Acu-Link.com,2013-03-25 06:32:00,
2013-03-25 02:47:00,29.1,21.2,29.61,NW,315,0.0,-999.0,72,-99.99,,,0.00,Acu-Link.com,2013-03-25 06:47:00,
2013-03-25 03:02:00,29.1,21.2,29.62,NE,45,1.7,-999.0,72,-99.99,,,0.00,Acu-Link.com,2013-03-25 07:02:00,
2013-03-25 03:17:00,28.8,21.3,29.62,NNW,337,0.0,-999.0,73,-99.99,,,0.00,Acu-Link.com,2013-03-25 07:17:00,
2013-03-25 03:32:00,28.6,21.4,29.61,NNW,337,0.0,-999.0,74,-99.99,,,0.00,Acu-Link.com,2013-03-25 07:32:00,
2013-03-25 03:48:00,28.4,21.2,29.61,ENE,67,1.7,-999.0,74,-99.99,,,0.00,Acu-Link.com,2013-03-25 07:48:00,
2013-03-25 04:03:00,28.4,21.5,29.60,ESE,112,1.7,-999.0,75,-99.99,,,0.00,Acu-Link.com,2013-03-25 08:03:00,
2013-03-25 04:18:00,28.2,21.3,29.60,ESE,112,0.0,-999.0,75,-99.99,,,0.00,Acu-Link.com,2013-03-25 08:18:00,
2013-03-25 04:33:00,28.4,20.9,29.60,NE,45,0.0,-999.0,73,-99.99,,,0.00,Acu-Link.com,2013-03-25 08:33:00,
2013-03-25 04:49:00,28.4,20.9,29.60,East,90,0.0,-999.0,73,-99.99,,,0.00,Acu-Link.com,2013-03-25 08:49:00,
2013-03-25 05:04:00,28.2,20.7,29.59,NNE,22,0.0,-999.0,73,-99.99,,,0.00,Acu-Link.com,2013-03-25 09:04:00,
2013-03-25 05:19:00,27.7,20.5,29.58,NE,45,0.0,-999.0,74,-99.99,,,0.00,Acu-Link.com,2013-03-25 09:19:00,
2013-03-25 05:34:00,27.3,20.4,29.57,ENE,67,0.0,-999.0,75,-99.99,,,0.00,Acu-Link.com,2013-03-25 09:34:00,
2013-03-25 05:49:00,27.3,20.8,29.57,East,90,1.7,-999.0,76,-99.99,,,0.00,Acu-Link.com,2013-03-25 09:49:00,
2013-03-25 06:04:00,27.5,20.9,29.57,East,90,0.0,-999.0,76,-99.99,,,0.00,Acu-Link.com,2013-03-25 10:04:00,
2013-03-25 06:19:00,27.7,20.8,29.58,NE,45,2.2,-999.0,75,-99.99,,,0.00,Acu-Link.com,2013-03-25 10:19:00,
2013-03-25 06:34:00,27.9,21.0,29.58,ESE,112,0.0,-999.0,75,-99.99,,,0.00,Acu-Link.com,2013-03-25 10:34:00,
2013-03-25 06:49:00,27.9,20.7,29.57,East,90,0.0,-999.0,74,-99.99,,,0.00,Acu-Link.com,2013-03-25 10:49:00,
2013-03-25 07:05:00,27.7,20.5,29.58,NNE,22,0.0,-999.0,74,-99.99,,,0.00,Acu-Link.com,2013-03-25 11:05:00,
2013-03-25 07:20:00,27.5,20.6,29.59,ENE,67,0.0,-999.0,75,-99.99,,,0.00,Acu-Link.com,2013-03-25 11:20:00,
2013-03-25 07:35:00,27.7,21.4,29.59,NE,45,0.0,-999.0,77,-99.99,,,0.00,Acu-Link.com,2013-03-25 11:35:00,
2013-03-25 07:50:00,28.6,21.4,29.60,East,90,0.0,-999.0,74,-99.99,,,0.00,Acu-Link.com,2013-03-25 11:50:00,
2013-03-25 08:05:00,29.8,21.9,29.59,NNE,22,0.0,-999.0,72,-99.99,,,0.00,Acu-Link.com,2013-03-25 12:05:00,
2013-03-25 08:20:00,30.9,21.9,29.59,NNE,22,2.2,-999.0,69,-99.99,,,0.00,Acu-Link.com,2013-03-25 12:20:00,
2013-03-25 08:35:00,32.7,22.6,29.57,ESE,112,2.7,-999.0,66,-99.99,,,0.00,Acu-Link.com,2013-03-25 12:35:00,
2013-03-25 08:50:00,34.7,23.0,29.58,NE,45,4.7,-999.0,62,-99.99,,,0.00,Acu-Link.com,2013-03-25 12:50:00,
2013-03-25 09:05:00,36.7,23.7,29.57,ESE,112,0.0,-999.0,59,-99.99,,,0.00,Acu-Link.com,2013-03-25 13:05:00,
2013-03-25 09:21:00,36.1,22.8,29.57,ESE,112,3.7,-999.0,58,-99.99,,,0.00,Acu-Link.com,2013-03-25 13:21:00,
2013-03-25 09:36:00,35.2,22.7,29.56,NE,45,2.2,-999.0,60,-99.99,,,0.00,Acu-Link.com,2013-03-25 13:36:00,
2013-03-25 10:06:00,36.9,23.5,29.55,ESE,112,1.7,-999.0,58,-99.99,,,0.00,Acu-Link.com,2013-03-25 14:06:00,
2013-03-25 10:21:00,37.4,23.6,29.55,ESE,112,2.2,-999.0,57,-99.99,,,0.00,Acu-Link.com,2013-03-25 14:21:00,
2013-03-25 10:36:00,38.1,23.8,29.55,East,90,3.2,-999.0,56,-99.99,,,0.00,Acu-Link.com,2013-03-25 14:36:00,
2013-03-25 11:06:00,40.3,24.5,29.54,ESE,112,2.2,-999.0,53,-99.99,,,0.00,Acu-Link.com,2013-03-25 15:06:00,
2013-03-25 11:21:00,41.0,24.7,29.53,SSW,202,2.2,-999.0,52,-99.99,,,0.00,Acu-Link.com,2013-03-25 15:21:00,
2013-03-25 11:52:00,41.4,24.2,29.52,ESE,112,3.2,-999.0,50,-99.99,,,0.00,Acu-Link.com,2013-03-25 15:52:00,
2013-03-25 12:07:00,43.0,25.6,29.52,WNW,292,1.7,-999.0,50,-99.99,,,0.00,Acu-Link.com,2013-03-25 16:07:00,
2013-03-25 12:22:00,42.4,23.6,29.50,WSW,247,1.1,-999.0,47,-99.99,,,0.00,Acu-Link.com,2013-03-25 16:22:00,
2013-03-25 12:37:00,43.3,25.9,29.50,East,90,1.7,-999.0,50,-99.99,,,0.00,Acu-Link.com,2013-03-25 16:37:00,
2013-03-25 12:52:00,43.3,24.4,29.50,SSE,157,2.7,-999.0,47,-99.99,,,0.00,Acu-Link.com,2013-03-25 16:52:00,
2013-03-25 13:07:00,44.2,25.3,29.48,East,90,3.2,-999.0,47,-99.99,,,0.00,Acu-Link.com,2013-03-25 17:07:00,
2013-03-25 13:53:00,43.5,24.1,29.47,WSW,247,1.1,-999.0,46,-99.99,,,0.00,Acu-Link.com,2013-03-25 17:53:00,
2013-03-25 14:08:00,44.4,26.0,29.46,East,90,5.3,-999.0,48,-99.99,,,0.00,Acu-Link.com,2013-03-25 18:08:00,
2013-03-25 14:23:00,43.5,24.6,29.45,WNW,292,2.2,-999.0,47,-99.99,,,0.00,Acu-Link.com,2013-03-25 18:23:00,
2013-03-25 14:38:00,44.1,24.7,29.45,NNW,337,3.7,-999.0,46,-99.99,,,0.00,Acu-Link.com,2013-03-25 18:38:00,
2013-03-25 14:53:00,43.5,24.6,29.45,East,90,2.2,-999.0,47,-99.99,,,0.00,Acu-Link.com,2013-03-25 18:53:00,
2013-03-25 15:08:00,43.5,24.1,29.44,WNW,292,2.2,-999.0,46,-99.99,,,0.00,Acu-Link.com,2013-03-25 19:08:00,
2013-03-25 15:24:00,43.3,23.9,29.43,West,270,2.2,-999.0,46,-99.99,,,0.00,Acu-Link.com,2013-03-25 19:24:00,
2013-03-25 15:39:00,43.5,24.6,29.43,South,180,1.7,-999.0,47,-99.99,,,0.00,Acu-Link.com,2013-03-25 19:39:00,
2013-03-25 15:54:00,44.2,24.2,29.43,SSW,202,1.1,-999.0,45,-99.99,,,0.00,Acu-Link.com,2013-03-25 19:54:00,
2013-03-25 16:09:00,43.5,24.6,29.43,East,90,1.7,-999.0,47,-99.99,,,0.00,Acu-Link.com,2013-03-25 20:09:00,
2013-03-25 16:24:00,44.4,26.0,29.42,East,90,1.1,-999.0,48,-99.99,,,0.00,Acu-Link.com,2013-03-25 20:24:00,
2013-03-25 16:39:00,45.3,25.2,29.43,WNW,292,4.2,-999.0,45,-99.99,,,0.00,Acu-Link.com,2013-03-25 20:39:00,
2013-03-25 16:54:00,44.8,25.3,29.43,North,0,0.0,-999.0,46,-99.99,,,0.00,Acu-Link.com,2013-03-25 20:54:00,
2013-03-25 17:09:00,45.0,26.0,29.43,South,180,0.0,-999.0,47,-99.99,,,0.00,Acu-Link.com,2013-03-25 21:09:00,
2013-03-25 17:24:00,44.2,24.7,29.44,NE,45,0.0,-999.0,46,-99.99,,,0.00,Acu-Link.com,2013-03-25 21:24:00,
2013-03-25 17:39:00,43.7,24.3,29.44,ESE,112,0.0,-999.0,46,-99.99,,,0.00,Acu-Link.com,2013-03-25 21:39:00,
2013-03-25 17:55:00,43.0,22.6,29.45,NW,315,1.7,-999.0,44,-99.99,,,0.00,Acu-Link.com,2013-03-25 21:55:00,
2013-03-25 18:10:00,42.3,22.5,29.46,NNE,22,3.7,-999.0,45,-99.99,,,0.00,Acu-Link.com,2013-03-25 22:10:00,
2013-03-25 18:25:00,41.5,22.8,29.46,NNW,337,0.0,-999.0,47,-99.99,,,0.00,Acu-Link.com,2013-03-25 22:25:00,
2013-03-25 18:40:00,40.8,23.1,29.47,NE,45,0.0,-999.0,49,-99.99,,,0.00,Acu-Link.com,2013-03-25 22:40:00,
2013-03-25 18:55:00,40.3,22.7,29.48,NNE,22,0.0,-999.0,49,-99.99,,,0.00,Acu-Link.com,2013-03-25 22:55:00,
2013-03-25 19:10:00,39.7,23.1,29.48,NW,315,0.0,-999.0,51,-99.99,,,0.00,Acu-Link.com,2013-03-25 23:10:00,
2013-03-25 19:25:00,39.2,23.5,29.49,ESE,112,0.0,-999.0,53,-99.99,,,0.00,Acu-Link.com,2013-03-25 23:25:00,
2013-03-25 19:40:00,38.5,23.3,29.49,WNW,292,0.0,-999.0,54,-99.99,,,0.00,Acu-Link.com,2013-03-25 23:40:00,
2013-03-25 19:55:00,37.9,24.0,29.50,WNW,292,0.0,-999.0,57,-99.99,,,0.00,Acu-Link.com,2013-03-25 23:55:00,
2013-03-25 20:11:00,37.4,24.0,29.50,SW,225,0.0,-999.0,58,-99.99,,,0.00,Acu-Link.com,2013-03-26 00:11:00,
2013-03-25 20:26:00,37.4,24.8,29.50,West,270,0.0,-999.0,60,-99.99,,,0.00,Acu-Link.com,2013-03-26 00:26:00,
2013-03-25 20:56:00,36.5,24.7,29.51,West,270,0.0,-999.0,62,-99.99,,,0.00,Acu-Link.com,2013-03-26 00:56:00,
2013-03-25 21:26:00,35.8,24.5,29.51,ESE,112,0.0,-999.0,63,-99.99,,,0.00,Acu-Link.com,2013-03-26 01:26:00,
2013-03-25 21:41:00,35.2,25.0,29.52,West,270,0.0,-999.0,66,-99.99,,,0.00,Acu-Link.com,2013-03-26 01:41:00,
2013-03-25 22:42:00,34.3,24.1,29.53,SW,225,0.0,-999.0,66,-99.99,,,0.00,Acu-Link.com,2013-03-26 02:42:00,
2013-03-25 22:57:00,34.2,24.4,29.54,West,270,0.0,-999.0,67,-99.99,,,0.00,Acu-Link.com,2013-03-26 02:57:00,
2013-03-25 23:12:00,34.2,25.5,29.54,WSW,247,0.0,-999.0,70,-99.99,,,0.00,Acu-Link.com,2013-03-26 03:12:00,
2013-03-25 23:27:00,34.0,25.3,29.54,SSW,202,0.0,-999.0,70,-99.99,,,0.00,Acu-Link.com,2013-03-26 03:27:00,
2013-03-25 23:42:00,34.0,25.3,29.54,SW,225,0.0,-999.0,70,-99.99,,,0.00,Acu-Link.com,2013-03-26 03:42:00,
2013-03-25 23:58:00,34.2,26.1,29.55,SSE,157,0.0,-999.0,72,-99.99,,,0.00,Acu-Link.com,2013-03-26 03:58:00,